AirNav   Air Wisconsin pilot careers
 
 1079 users online  

T26 Flying V Ranch Airport
Louise, Texas, USA

GOING TO LOUISE?


FAA INFORMATION EFFECTIVE 19 JULY 2018

Location

FAA Identifier: T26
Lat/Long: 29-06-29.8000N / 096-23-55.6000W
29-06.496667N / 096-23.926667W
29.1082778 / -96.3987778
(estimated)
Elevation: 60 ft. / 18 m (estimated)
Variation: 06E (1995)
From city: 1 mile SE of LOUISE, TX
Time zone: UTC -5 (UTC -6 during Standard Time)
Zip code: 77455

Airport Operations

Airport use: Open to the public
Activation date: 06/1997
Control tower: no
ARTCC: HOUSTON CENTER
FSS: MONTGOMERY COUNTY FLIGHT SERVICE STATION
NOTAMs facility: CXO (NOTAM-D service available)
Attendance: CONTINUOUS
Wind indicator: yes
Segmented circle: no

Airport Communications

CTAF/UNICOM: 122.8
WX AWOS-3 at ARM (16 nm NE): 118.475 (979-532-2791)

Nearby radio navigation aids

VOR radial/distance  VOR name  Freq  Var
PSXr339/21.2PALACIOS VORTAC117.3008E
VCTr062/32.9VICTORIA VOR/DME109.0006E
ELAr179/33.5EAGLE LAKE VOR/DME116.4008E

 
NDB name  Hdg/Dist  Freq  Var  ID
WHARTON233/15.624503EARM .- .-. --

Airport Services

Parking: tiedowns
Airframe service: MAJOR
Powerplant service: MAJOR

Runway Information

Runway 14/32

Dimensions: 2990 x 80 ft. / 911 x 24 m
Surface: turf, in good condition
Operational restrictions: RY 14 CREEK/RAVINE 10-15 FT DROP-OFF AT THLD EAST SIDE OF CNTRLN.
RUNWAY 14  RUNWAY 32
Traffic pattern: leftright
Obstructions: 40 ft. tree, 55 ft. right of centerline
APCH SLOPE 8:1 BASED ON STRAIGHT OUT OVR 27 FT TREES, 220 FT DSTC.
40 ft. tree, 75 ft. right of centerline
+4 FT FENCE PARALLEL TO RY CNTRLN 50 FT L IN PRIMARY SFC.

Airport Ownership and Management from official FAA records

Ownership: Privately-owned
Owner: ROBERT C VAJDOS, JR.
PO BOX 367
LOUISE, TX 77455
Phone 979-648-2163
Manager: ROBBIE VAJDOS
PO BOX 367
LOUISE, TX 77455
Phone 979-648-2163

Airport Operational Statistics

Aircraft based on the field: 5
Single engine airplanes: 5
    
Aircraft operations: avg 29/week *
67% local general aviation
33% transient general aviation
* for 12-month period ending 31 December 2016

Additional Remarks

RUNWAY EDGE MARKED WITH WHITE TIRES.
RY 32 HAS 4 FT BERM 60 FT FM THLD ACROSS APCH.

Instrument Procedures

There are no published instrument procedures at T26.

Some nearby airports with instrument procedures:

26R - Jackson County Airport (12 nm SW)
KARM - Wharton Regional Airport (16 nm NE)
KPSX - Palacios Municipal Airport (24 nm S)
KBYY - Bay City Regional Airport (29 nm E)
KELA - Eagle Lake Airport (30 nm N)
 
Loc | Ops | Rwys | IFR | FBO | Links
Com | Nav | Svcs | Stats | Notes


 
Area around T26 (Flying V Ranch Airport)
 
Road maps at: MapQuest Bing Google
 
Aerial photo
WARNING: Photo may not be current or correct
Aerial photo of T26 (Flying V Ranch Airport)
Photo taken 08-Sep-2007

Do you have a better or more recent aerial photo of Flying V Ranch Airport that you would like to share? If so, please send us your photo.

 
Sectional chart

 
Airport distance calculator
Flying to Flying V Ranch Airport? Find the distance to fly.

From to T26

Sunrise and sunset
Times for 19-Jul-2018
 Local
(UTC-5)
 Zulu
(UTC)
Morning civil twilight06:1311:13
Sunrise06:4011:40
Sunset20:2401:24
Evening civil twilight20:5001:50

Current date and time
Zulu (UTC)  19-Jul-2018 23:24:18
Local (UTC-5)  19-Jul-2018 18:24:18
 
METAR
KARM 
16nm NE 
192255Z AUTO 16010KT 10SM CLR 34/21 A2989 RMK AO2 T03400205
KPSX 
25nm S 
192253Z AUTO 19011KT 10SM CLR 32/26 A2990 RMK AO2 SLP124 T03170261
KBYY 
29nm E 
192255Z AUTO 20009KT 10SM CLR 32/25 A2990 RMK AO2 T03270238
KELA 
30nm N 
192255Z AUTO 19007KT 10SM CLR 35/22 A2987 RMK AO2 T03510222
TAF
KVCT 
32nm SW 
191720Z 1918/2018 19010G17KT P6SM FEW250 FM192100 17011KT P6SM FEW250 FM201000 VRB04KT 4SM BR FEW030 SCT130 TEMPO 2010/2013 4SM BR BKN030 FM201300 20006KT P6SM FEW060 SCT080
NOTAMs
Click for the latest NOTAMs
NOTAMs are issued by the DoD/FAA and will open in a separate window not controlled by AirNav.

 

 
 

Where to Eat: Catering, Restaurants, Food shops

  
 Business Name 
 
 Contact 
 
 Services / Description 
 
Distance
 
Comments
  
Antique Eatery 979-648-2550
no information available

If you are affiliated with Antique Eatery and would like to show here your services, contact info, web link, logo, and more, click here
0.4 miles  
   write
 

Would you like to see your business listed on this page?

 If your business provides an interesting product or service to pilots, flight crews, aircraft, or users of the Flying V Ranch Airport, you should consider listing it here.  To start the listing process, click on the button below
 
Add a business
 

Other Pages about Flying V Ranch Airport

Update a link
 
Copyright © AirNav, LLC. All rights reserved. Privacy Policy  Contact